Fort Smith, AR

6:20 PM CDT on October 21, 2019 (GMT -0500)
Fort Smith Regional

Weather History for KFSM - September, 2019

Change the Weather History Date:

Tuesday, September 17, 2019

  Actual Average Record
Temperature  
Mean Temperature 84 °F 73 °F  
Max Temperature 96 °F 85 °F 102 °F (1896)
Min Temperature 72 °F 62 °F 43 °F (1903)
Degree Days  
Heating Degree Days 0 0  
Month to date heating degree days 0 0  
Since 1 July heating degree days 0 0  
Cooling Degree Days 19 9  
Month to date cooling degree days 321 196  
Year to date cooling degree days 2099 1891  
Growing Degree Days 34 (Base 50)    
Moisture  
Dew Point 72 °F    
Average Humidity 70    
Maximum Humidity 100    
Minimum Humidity 45    
Precipitation  
Precipitation 0.00 in 0.13 in 1.80 in (1884)
Month to date precipitation 0.04 2.21  
Year to date precipitation 50.11 31.57  
Sea Level Pressure  
Sea Level Pressure 29.98 in    
Wind  
Wind Speed 4 mph ()    
Max Wind Speed 14 mph    
Max Gust Speed 18 mph    
Visibility 9.7 miles    
Events      
T = Trace of Precipitation, MM = Missing Value Source: Averaged Metar Reports

Daily Weather History Graph

Daily Weather History Graph

Search for Another Location

Airport or City:

Astronomy

Sep. 17, 2019 Rise Set
Actual Time 7:01 AM CDT 7:21 PM CDT
Civil Twilight 6:36 AM CDT 7:47 PM CDT
Nautical Twilight 6:06 AM CDT 8:17 PM CDT
Astronomical Twilight 5:35 AM CDT 8:47 PM CDT
Moon 9:32 PM CDT (9/17) 10:01 AM CDT (9/17)
Length of Visible Light 13h 11m
Length of Day
12h 20m
Waning Gibbous, 89% of the Moon is Illuminated
Sep 17
Waning Gibbous
Sep 21
Last Quarter
Sep 28
New
Oct 5
First Quarter
Oct 13
Full

Hourly Weather History & Observations

Time (CDT) Temp. Heat Index Dew Point Humidity Pressure Visibility Wind Dir Wind Speed Gust Speed Precip Events Conditions
12:53 AM 75.0 °F - 72.0 °F 90% 29.99 in 8.0 mi ENE 4.6 mph - N/A   Clear
1:53 AM 75.0 °F - 71.1 °F 87% 29.99 in 10.0 mi NE 4.6 mph - N/A   Clear
2:53 AM 75.0 °F - 71.1 °F 87% 29.99 in 10.0 mi ENE 3.5 mph - N/A   Clear
4:53 AM 73.0 °F - 71.1 °F 93% 30.00 in 10.0 mi East 3.5 mph - N/A   Clear
5:53 AM 73.0 °F - 71.1 °F 93% 30.02 in 10.0 mi ENE 3.5 mph - N/A   Clear
6:53 AM 72.0 °F - 71.1 °F 97% 30.02 in 9.0 mi NE 4.6 mph - N/A   Clear
7:53 AM 73.0 °F - 72.0 °F 96% 30.04 in 7.0 mi ENE 4.6 mph - N/A   Clear
8:53 AM 77.0 °F - 73.0 °F 88% 30.04 in 9.0 mi ENE 8.1 mph - N/A   Clear
9:53 AM 81.0 °F 85.8 °F 73.0 °F 77% 30.04 in 10.0 mi ENE 5.8 mph - N/A   Clear
10:53 AM 86.0 °F 93.8 °F 73.9 °F 67% 30.04 in 10.0 mi ENE 6.9 mph - N/A   Clear
11:53 AM 90.0 °F 100.2 °F 75.0 °F 61% 30.03 in 10.0 mi Variable 4.6 mph - N/A   Clear
12:53 PM 93.0 °F 100.7 °F 72.0 °F 50% 30.00 in 10.0 mi East 5.8 mph - N/A   Clear
1:53 PM 93.9 °F 100.8 °F 71.1 °F 47% 29.98 in 10.0 mi ESE 8.1 mph - N/A   Partly Cloudy
2:53 PM 95.0 °F 104.5 °F 73.0 °F 49% 29.95 in 10.0 mi ENE 9.2 mph - N/A   Clear
3:53 PM 95.0 °F 102.5 °F 71.1 °F 46% 29.93 in 10.0 mi ENE 8.1 mph - N/A   Partly Cloudy
4:53 PM 96.1 °F 104.9 °F 72.0 °F 46% 29.91 in 10.0 mi East 6.9 mph - N/A   Scattered Clouds
5:53 PM 93.9 °F 100.3 °F 70.0 °F 46% 29.90 in 10.0 mi East 5.8 mph - N/A   Scattered Clouds
6:53 PM 89.1 °F 97.0 °F 73.0 °F 59% 29.89 in 10.0 mi East 3.5 mph - N/A   Partly Cloudy
7:53 PM 84.9 °F 91.4 °F 73.0 °F 67% 29.90 in 10.0 mi East 3.5 mph - N/A   Scattered Clouds
8:53 PM 82.9 °F 87.5 °F 71.1 °F 67% 29.92 in 10.0 mi Calm Calm - N/A   Partly Cloudy
9:53 PM 82.0 °F 85.9 °F 70.0 °F 67% 29.94 in 10.0 mi ENE 3.5 mph - N/A   Clear
10:53 PM 81.0 °F 84.4 °F 70.0 °F 69% 29.94 in 10.0 mi East 3.5 mph - N/A   Clear